GFSMA_prec_cthk_114.txt.gz
RH
36 37 39 42 44 44 45 41 40 41 46 50 49 51 54 55 58 64 62 66 72 79 90 90 93 91 86 85 75 56 40 25 21 22 17 16 15 14 13 12 12 13 15
39 36 39 40 44 42 43 46 43 41 43 47 49 51 55 55 63 66 61 62 59 68 78 84 89 98 91 86 74 62 34 33 23 24 19 16 16 18 16 16 17 18 20
49 41 36 40 42 43 41 44 47 44 42 45 49 56 56 61 63 61 58 59 60 55 65 83 97 96 96 89 77 64 35 23 27 25 27 20 20 20 18 18 20 23 24
49 48 39 36 42 44 43 42 44 46 44 42 46 51 56 61 62 59 57 54 58 61 68 78 92 98 96 92 74 63 41 28 27 28 28 23 21 20 19 21 23 25 26
48 48 46 41 41 43 43 47 45 45 49 44 44 48 55 59 62 60 54 53 61 57 70 81 90 96 97 97 77 66 39 30 27 30 27 27 24 22 20 23 26 27 29
46 47 52 50 43 45 46 46 47 48 50 49 47 50 52 59 67 54 48 51 61 63 73 89 94 97 94 97 81 63 42 29 25 31 29 30 26 24 23 26 29 30 33
46 50 54 51 44 42 44 45 48 51 52 53 52 51 52 52 59 60 53 52 56 67 82 89 93 93 94 98 90 67 48 28 25 30 30 31 29 28 25 27 30 34 42
46 49 51 53 45 42 45 45 46 50 53 53 54 58 55 55 58 64 58 53 54 65 84 92 92 97 98 98 91 74 54 39 27 28 28 27 31 30 25 26 29 33 36
40 44 45 47 51 48 49 50 50 51 53 54 60 63 62 55 58 67 62 54 54 61 76 91 92 97 97 98 98 79 58 45 30 30 34 27 30 25 23 25 27 31 33
37 38 45 46 49 54 55 50 52 55 57 53 64 65 65 62 59 66 66 53 50 52 63 90 93 96 97 95 97 85 68 52 42 37 35 34 31 28 26 26 26 30 32
34 38 45 50 48 51 55 55 58 58 57 59 63 68 69 66 61 62 68 60 50 52 51 72 89 94 95 97 96 94 80 61 46 39 42 46 34 29 31 34 36 34 35
26 32 44 51 49 47 49 54 65 68 69 70 73 73 68 68 60 62 70 63 55 57 51 53 80 90 93 95 98 97 84 74 51 40 39 52 38 30 31 36 39 35 38
32 31 41 49 50 46 52 62 75 68 62 65 70 66 68 65 63 61 67 70 61 54 57 50 62 77 89 95 98 98 93 88 68 50 48 56 43 33 31 35 41 41 39
36 38 44 50 50 48 53 60 67 66 63 72 70 63 61 58 62 62 64 71 63 54 55 49 51 68 88 96 98 99 97 91 77 54 57 53 39 37 36 34 41 46 45
42 42 48 56 54 49 52 59 76 72 74 78 72 61 57 53 60 60 66 69 62 58 52 49 56 54 76 93 96 98 98 92 84 67 58 50 38 34 36 35 37 41 45
49 54 54 59 57 51 54 57 71 74 78 78 72 62 56 55 61 63 69 69 60 57 49 51 60 63 67 85 95 98 98 95 88 79 57 49 40 34 34 34 36 41 46
69 67 62 60 58 56 53 57 69 74 79 71 62 54 54 57 63 64 77 67 53 50 53 55 62 65 63 87 94 98 98 96 93 82 67 52 45 39 37 37 39 43 49
75 72 70 65 63 59 62 69 74 83 80 76 53 57 57 62 66 73 72 56 51 51 60 60 62 64 68 75 89 97 99 97 98 90 76 63 48 49 46 42 42 44 51
85 82 77 77 77 77 78 77 88 90 84 80 67 59 62 75 71 70 65 60 57 60 61 62 63 66 72 76 90 98 99 98 99 96 85 73 60 52 53 53 49 49 51
85 82 84 81 77 73 75 80 80 82 79 82 70 68 69 68 74 70 66 55 57 60 62 62 67 73 75 83 93 97 98 99 98 94 92 81 72 64 60 58 59 57 54
87 89 88 81 73 75 82 88 92 92 88 84 79 67 66 70 69 70 57 54 59 60 61 62 71 71 76 78 91 94 99 99 98 98 94 88 82 81 75 72 69 72 68
91 91 89 82 83 87 93 97 97 92 91 86 71 66 70 72 73 64 55 53 57 63 65 72 82 82 72 81 90 92 93 94 96 93 95 95 94 96 91 86 80 81 76
94 92 90 90 94 96 96 98 97 94 92 77 72 75 78 79 73 67 60 55 58 61 68 83 96 87 82 88 93 96 93 96 98 96 95 98 98 98 97 97 89 86 86
98 97 96 95 97 99 97 98 99 94 87 84 84 85 85 81 78 75 70 65 66 63 70 91 97 96 93 91 93 96 95 99 99 98 99 98 98 98 98 97 94 89 87
98 97 98 98 97 98 98 96 93 88 87 90 92 92 86 87 84 81 79 74 68 63 65 81 95 96 98 99 98 99 98 99 99 98 98 97 98 98 98 97 94 94 92
98 98 98 98 98 98 97 95 96 96 97 99 98 95 91 89 89 86 84 80 72 67 66 77 91 96 98 99 99 99 99 99 99 99 98 99 98 98 98 98 97 98 97

GFSMA_prec_cthk_117.txt.gz
RH
49 53 50 46 43 45 44 44 42 44 43 45 48 44 48 54 57 58 61 61 57 65 69 79 88 91 91 88 83 82 70 53 40 25 18 17 14 12 11 10 10 10 12
48 53 55 57 52 44 42 45 46 44 45 44 46 43 43 47 54 59 69 66 57 61 61 61 81 88 88 90 91 88 77 62 43 25 20 19 16 15 14 14 13 13 15
49 48 51 59 60 57 43 43 47 45 49 48 47 45 45 50 53 58 64 62 61 57 58 60 60 79 91 94 95 96 84 70 40 28 25 22 20 17 16 16 16 17 20
51 51 49 50 60 61 54 45 46 47 45 49 49 47 43 45 49 53 59 57 62 60 53 52 59 68 80 84 98 98 87 73 47 35 27 24 26 21 18 17 17 20 23
47 54 52 48 51 58 58 51 48 44 47 48 49 49 47 47 49 52 57 53 54 63 62 59 60 68 79 89 91 97 81 65 53 35 28 29 32 26 21 20 19 22 25
48 57 61 56 49 49 54 57 49 49 51 52 50 51 51 50 52 53 56 57 53 50 55 69 68 74 90 91 96 97 83 67 51 29 28 30 32 28 24 23 22 24 28
57 66 61 61 50 47 47 54 53 53 49 55 55 53 53 53 52 53 56 61 60 58 52 60 67 77 85 92 90 94 95 73 58 30 26 27 30 28 24 23 24 27 30
65 65 59 56 51 51 54 56 54 53 54 50 55 58 57 55 55 58 57 59 63 64 53 56 64 78 92 89 93 94 96 86 65 37 26 26 31 29 25 23 25 28 31
64 62 54 51 52 49 50 59 59 56 55 52 52 55 57 53 64 60 62 63 64 64 58 50 54 73 92 94 96 92 95 86 67 44 34 25 29 31 25 24 23 25 30
55 56 63 62 50 48 50 51 62 58 62 60 56 53 55 58 66 69 67 65 67 63 60 49 46 58 83 93 92 93 98 93 80 54 39 30 28 32 31 25 25 23 26
49 44 50 61 52 47 48 49 57 64 62 61 60 58 59 59 65 70 71 71 68 65 62 51 50 46 61 83 93 95 94 96 88 67 53 36 31 28 37 30 23 21 24
42 41 41 44 50 47 49 51 53 59 65 69 66 60 60 60 67 72 73 71 68 67 64 61 52 48 45 66 87 91 97 97 97 79 61 47 39 32 35 44 31 21 26
38 29 37 36 37 43 47 51 55 55 60 63 73 73 74 65 75 79 74 69 69 65 67 67 54 50 48 48 63 84 94 97 97 95 74 59 47 39 38 53 40 28 30
36 37 28 31 35 37 46 55 58 59 57 60 73 73 78 66 69 74 71 71 65 61 63 68 56 47 46 46 52 76 92 97 99 98 78 64 52 47 43 53 45 30 30
40 42 35 30 31 35 39 52 58 60 58 59 63 76 70 64 70 67 71 72 72 64 61 66 64 50 46 48 50 57 78 93 98 98 87 85 63 53 54 59 51 33 31
59 46 47 33 38 37 36 49 56 58 61 60 63 67 72 76 84 71 66 69 69 70 66 70 63 52 48 47 58 59 66 80 96 97 93 92 81 58 58 62 53 39 35
60 61 61 46 41 41 43 50 57 61 67 68 71 78 78 82 78 69 61 66 66 65 63 67 59 52 51 52 59 64 63 76 91 97 96 92 85 65 62 61 50 41 39
78 76 68 67 50 48 51 55 65 67 69 76 80 80 84 81 78 58 55 61 61 64 72 67 54 52 51 56 58 60 63 69 78 92 97 97 91 80 67 56 50 44 43
93 85 77 79 71 57 56 62 67 72 72 76 83 85 88 89 79 62 67 71 69 75 73 68 59 55 58 57 58 63 67 72 77 90 97 99 96 87 78 59 53 48 46
74 74 77 79 77 64 61 65 76 79 82 81 87 93 91 97 85 69 67 68 72 71 67 71 57 51 54 57 61 65 67 73 77 87 96 98 97 93 89 78 64 57 53
79 81 83 84 76 76 78 82 86 90 89 85 89 91 96 90 82 80 71 67 69 69 71 65 55 55 55 56 59 66 76 75 80 89 97 98 99 98 93 89 80 72 61
83 78 87 92 93 96 96 93 89 89 87 88 88 89 87 91 88 76 74 67 69 72 70 61 58 57 59 64 67 80 88 82 76 84 98 97 98 99 98 94 88 80 74
91 90 90 90 93 93 97 98 94 93 95 94 95 94 94 90 89 84 76 74 77 76 69 64 63 62 65 68 77 87 92 84 76 89 94 94 93 99 98 97 95 93 91
99 96 99 100 95 97 99 100 98 99 98 99 97 95 96 94 94 84 82 84 82 78 76 73 71 68 67 67 82 94 98 90 89 86 87 99 97 94 98 99 98 97 98
98 98 99 99 98 99 96 98 95 95 97 98 97 95 98 93 88 86 87 91 87 86 82 79 75 69 68 67 72 92 98 97 89 90 91 99 97 98 99 99 98 99 98
98 96 96 97 97 98 97 98 96 97 98 98 98 96 92 91 93 96 95 95 92 88 84 83 78 75 72 70 69 85 97 99 99 96 95 99 98 98 98 98 98 98 98

GFSMA_prec_cthk_120.txt.gz
RH
35 43 45 48 47 45 39 45 44 42 42 44 44 47 44 43 47 50 66 61 57 58 52 61 64 74 89 90 95 89 86 86 72 49 36 25 15 18 13 9 9 10 10
41 42 44 51 47 48 43 41 47 45 44 45 46 44 45 44 45 53 53 52 56 57 55 56 60 61 75 86 92 93 94 89 81 58 40 31 17 15 17 11 11 10 10
45 47 48 50 47 54 51 48 51 50 46 47 46 49 47 44 45 50 49 51 55 57 55 54 54 53 62 73 82 90 89 94 87 71 44 36 18 16 16 14 14 14 14
47 53 48 49 50 56 55 55 53 54 50 48 49 47 46 44 43 43 48 51 55 54 50 53 53 56 55 58 59 73 82 97 93 83 54 36 23 19 15 16 17 16 17
50 49 48 49 50 54 53 56 52 58 53 50 51 48 46 47 45 44 47 52 53 55 49 45 46 48 61 61 61 71 89 90 94 86 63 36 29 25 18 18 18 18 19
53 50 50 50 53 52 58 58 54 55 56 55 56 52 50 48 46 48 47 53 53 57 54 53 50 48 57 66 72 79 89 93 92 79 66 38 32 28 23 19 19 19 21
59 54 50 50 55 56 55 57 54 55 59 58 62 62 54 52 51 48 50 53 53 56 61 58 58 52 55 63 67 87 90 96 91 76 63 49 35 30 29 23 20 22 22
66 62 59 54 49 58 60 58 56 52 59 62 59 64 65 61 52 53 56 60 57 60 60 62 61 58 54 57 72 90 89 94 95 82 64 47 30 29 29 27 22 24 26
66 76 66 66 55 58 59 57 53 51 56 61 60 61 64 61 59 57 55 59 64 64 66 64 63 60 54 51 64 92 91 91 93 95 76 52 37 27 27 30 27 23 25
52 59 65 76 74 71 64 52 50 50 60 58 64 62 65 65 61 56 57 61 67 70 72 72 65 61 58 52 55 68 87 93 94 96 87 65 46 30 26 24 26 26 26
43 50 65 73 78 77 84 54 52 51 51 61 63 63 62 65 70 63 71 65 71 67 71 72 67 63 59 54 49 53 72 90 91 95 92 77 59 37 32 25 22 24 24
40 44 51 55 76 72 74 97 52 62 49 55 62 66 64 64 67 67 65 66 68 67 71 66 67 62 64 58 47 46 55 75 87 91 92 86 69 49 36 32 26 27 35
38 43 48 44 51 60 62 54 70 73 55 53 57 61 66 67 72 75 78 69 69 76 79 71 62 64 65 65 52 47 46 52 74 90 93 94 84 66 46 40 34 31 36
30 39 42 63 56 55 62 52 58 55 61 55 57 60 61 61 64 67 74 75 85 79 76 71 67 63 65 68 59 52 48 48 58 79 93 96 94 82 62 42 40 36 40
15 28 42 46 70 61 57 55 46 44 50 56 56 63 59 61 65 67 78 77 68 71 73 73 74 67 64 71 64 54 44 46 55 59 78 97 97 94 83 59 50 42 42
20 20 33 34 53 89 62 56 53 49 47 50 59 58 59 64 63 68 69 75 74 82 80 69 73 76 69 68 62 51 49 50 55 60 65 82 97 98 90 71 56 52 51
31 24 32 37 36 89 83 64 48 49 48 47 56 64 59 66 64 67 72 76 85 82 80 65 65 74 73 69 61 52 50 53 53 58 60 71 93 98 94 86 69 61 61
44 43 48 33 42 87 86 59 42 44 49 49 51 61 59 65 69 70 75 85 90 88 79 58 63 62 67 78 67 58 55 57 55 54 56 61 77 94 94 95 93 83 63
38 50 61 71 83 89 76 51 47 54 50 52 55 67 65 73 75 78 76 84 91 91 69 64 57 66 73 72 71 65 55 58 58 57 60 64 72 80 90 96 94 84 64
66 76 74 78 82 86 86 75 67 60 53 57 68 73 77 78 78 78 86 92 89 86 69 76 76 78 75 68 76 64 58 54 60 65 64 66 76 79 92 99 97 94 83
74 93 95 95 96 93 96 88 75 65 62 68 71 75 79 78 80 87 94 86 87 95 72 70 74 72 71 74 66 60 58 59 61 64 68 68 76 80 84 98 99 98 92
91 99 98 91 90 97 95 98 84 79 77 75 76 76 78 85 87 96 98 94 95 93 83 75 69 70 70 74 67 60 61 62 64 61 74 77 77 75 83 97 97 99 95
97 94 94 98 99 98 98 94 95 89 89 84 84 83 90 96 99 96 96 97 96 94 85 77 73 70 73 75 69 67 66 65 67 70 82 87 88 83 77 94 97 97 99
95 97 97 96 97 95 92 98 98 92 96 94 95 97 98 97 95 97 95 94 95 94 91 88 79 75 78 78 74 75 73 70 69 66 79 95 95 88 77 87 94 94 96
98 99 98 95 94 93 95 90 92 96 97 97 99 95 97 97 97 98 98 99 97 97 96 93 84 82 84 81 77 75 74 70 70 67 72 96 98 94 88 87 86 96 99
76 79 93 91 98 96 98 98 98 96 97 97 96 99 94 96 98 98 98 96 96 98 93 90 91 93 89 86 82 77 75 74 73 70 72 87 97 99 94 92 91 91 97

GFSMA_prec_cthk_126.txt.gz
RH
45 41 37 35 33 32 33 35 38 39 42 38 39 41 43 43 42 44 49 51 55 52 57 60 52 52 53 53 55 61 66 75 84 76 74 69 56 37 26 17 14 13 11
60 50 43 41 38 36 34 35 39 41 43 44 42 38 42 43 45 44 48 53 51 48 56 55 50 51 52 52 53 53 58 62 72 83 80 77 73 51 31 19 12 9 9
81 66 53 48 41 38 36 39 40 44 45 45 44 44 43 40 38 39 41 47 50 49 49 52 49 50 49 48 51 55 57 58 59 61 78 77 77 70 38 27 18 12 10
97 90 72 56 49 48 44 44 45 44 44 46 45 43 48 47 43 35 34 40 45 46 47 48 50 48 47 46 44 45 50 52 55 59 68 75 76 82 51 33 24 15 13
88 92 86 71 63 62 56 51 46 46 43 45 47 44 46 49 48 46 36 32 40 44 44 46 47 49 49 48 50 49 49 50 53 57 64 68 77 86 71 40 32 20 14
93 95 98 87 85 68 62 63 54 53 51 49 49 47 44 45 49 50 46 39 35 43 48 47 49 51 52 53 52 53 52 49 55 67 74 80 82 89 89 47 38 27 16
77 85 94 96 88 80 73 77 65 57 60 65 60 55 52 51 47 52 52 48 42 40 44 50 49 52 55 57 56 58 56 52 59 67 84 91 94 96 92 56 43 34 20
51 73 88 92 93 84 85 86 77 72 67 76 73 66 61 59 48 46 51 51 49 46 39 47 50 53 55 58 58 61 59 59 62 67 88 97 99 99 93 66 45 39 24
39 52 69 83 98 94 88 89 84 77 79 81 83 80 70 60 50 44 45 51 53 52 49 43 50 54 57 63 62 63 62 58 63 62 78 97 98 98 92 76 50 38 26
17 39 52 61 76 83 91 95 76 73 77 81 83 85 85 65 52 46 43 44 50 54 56 52 47 50 56 62 66 65 63 58 63 56 67 86 97 97 94 78 51 36 32
18 20 39 50 58 68 77 81 81 70 78 72 78 82 84 82 64 47 39 42 47 51 55 57 53 53 59 62 63 65 63 58 58 54 53 64 85 99 96 85 64 45 35
22 19 24 37 42 58 64 67 72 82 82 90 79 81 79 84 76 51 40 44 41 44 51 58 54 60 60 60 63 66 64 57 57 56 49 54 70 96 99 94 76 58 45
27 24 22 27 35 38 48 58 69 80 83 88 94 89 97 92 89 70 52 52 51 47 50 56 58 59 62 64 64 69 65 61 56 57 55 47 53 78 96 98 91 76 56
34 30 28 24 27 35 39 41 56 70 82 91 93 99 97 95 98 83 64 60 58 56 57 53 57 58 61 67 68 73 68 66 61 57 60 50 46 52 77 88 95 95 89
40 37 34 29 25 26 38 41 41 54 65 78 81 92 90 82 91 97 86 81 72 67 66 62 56 57 62 72 74 74 70 71 68 65 62 59 48 45 56 68 78 91 98
38 35 32 34 31 26 26 37 42 39 56 62 64 69 69 72 80 83 83 81 78 71 70 64 56 60 64 70 74 79 72 74 75 76 68 62 52 45 47 56 63 71 90
41 35 34 35 36 34 28 26 34 44 38 44 54 64 72 78 86 91 84 79 81 74 74 69 68 65 64 66 77 79 79 82 78 80 74 68 58 50 46 51 56 64 71
52 51 50 48 42 39 40 34 23 28 41 39 45 56 70 84 94 98 83 84 86 78 77 74 68 69 65 72 78 81 78 87 88 81 77 69 64 56 52 55 58 60 62
65 61 60 60 61 59 54 47 39 28 32 47 56 51 59 53 67 87 96 90 84 81 73 71 65 73 72 77 76 76 76 81 84 80 73 67 64 65 58 55 57 57 59
71 67 67 62 63 62 60 59 50 37 32 31 38 40 36 37 44 63 76 83 80 77 78 73 73 71 70 70 77 77 78 79 84 78 66 65 63 65 60 53 56 57 57
85 84 85 86 72 62 67 59 54 49 45 41 45 42 44 49 54 59 78 85 82 79 76 76 76 74 72 78 85 86 83 84 82 77 69 68 69 67 57 56 55 56 55
96 98 98 98 95 83 66 63 59 54 55 61 57 60 66 64 65 68 76 86 85 79 75 79 79 84 81 83 81 87 86 86 81 78 74 70 67 63 63 60 55 58 59
97 93 95 97 98 98 95 85 77 73 73 71 66 70 77 77 77 88 81 91 96 88 87 83 81 89 82 82 84 87 91 93 83 78 70 66 67 66 66 64 61 62 66
79 82 88 94 96 97 97 97 96 95 97 98 98 95 89 93 95 95 88 95 88 93 98 90 89 87 84 86 88 92 91 94 90 86 75 70 66 66 70 70 64 66 65
34 37 42 48 63 75 81 86 93 97 99 98 97 93 97 96 97 99 97 98 98 98 98 96 96 92 97 89 97 96 96 94 92 93 88 82 75 71 69 71 71 70 71
20 22 25 28 32 33 37 44 53 60 70 81 84 85 88 94 97 98 93 96 98 97 97 94 98 95 99 97 98 98 97 96 97 96 90 86 83 82 76 71 70 69 67

GFSMA_prec_cthk_129.txt.gz
RH
57 56 53 50 48 46 43 41 41 43 45 47 49 47 40 37 40 42 44 44 45 48 60 61 58 59 53 53 54 54 55 57 64 70 83 77 67 62 52 36 28 21 19
77 73 67 59 52 49 48 49 44 45 46 47 49 49 48 40 38 45 42 43 44 45 46 53 62 52 52 52 51 51 54 52 56 58 78 84 77 71 66 46 34 23 20
86 90 90 75 68 61 59 55 52 50 49 50 49 48 48 47 41 42 42 44 43 40 40 47 50 47 49 51 48 49 50 50 54 52 56 66 77 78 74 64 37 26 16
97 91 91 85 82 78 71 66 59 56 53 54 51 48 49 47 46 44 46 42 46 41 36 40 41 42 46 48 45 46 46 46 49 52 56 57 60 70 77 78 49 31 21
65 80 97 83 96 88 86 79 71 64 56 55 55 54 50 49 49 50 50 45 41 46 40 35 35 37 41 45 46 49 51 51 49 50 52 57 59 62 72 78 75 39 31
34 48 62 96 86 89 94 92 84 77 68 62 61 60 56 51 51 49 50 53 45 45 45 43 39 37 38 44 49 51 54 55 58 55 52 57 70 75 73 74 83 52 38
20 25 38 55 95 92 90 96 92 81 86 78 68 66 62 59 57 52 51 52 53 50 51 49 48 44 44 43 49 55 57 57 59 61 65 62 78 84 85 79 84 69 41
20 20 23 36 64 85 94 95 91 91 82 91 88 76 68 63 64 58 53 51 52 55 52 51 49 50 50 47 49 53 58 61 59 61 64 60 83 95 98 92 91 84 49
28 22 19 23 39 53 94 83 91 92 88 93 93 87 86 76 72 68 61 55 52 53 55 55 54 50 52 48 48 53 58 63 63 60 62 63 82 95 97 98 97 86 54
31 28 22 17 25 41 70 97 87 95 90 92 92 89 84 80 83 83 79 65 55 51 50 53 54 57 59 59 48 51 59 66 67 62 59 58 68 88 86 98 95 84 60
34 33 28 21 15 29 45 80 84 94 89 86 90 97 91 85 87 87 83 74 67 53 49 47 51 56 61 62 59 52 63 64 69 65 59 58 52 58 77 96 94 89 71
34 36 35 30 21 17 33 51 74 80 84 97 91 98 94 93 88 93 91 77 78 64 54 51 51 56 61 63 64 62 62 66 69 69 60 58 59 52 60 92 95 91 86
42 40 39 37 32 23 21 35 48 70 80 82 85 83 90 93 95 96 92 90 84 82 70 54 49 50 56 62 63 64 65 73 72 71 64 58 59 55 49 72 99 98 89
47 43 44 42 38 33 26 26 31 37 54 68 80 84 83 91 96 96 98 96 94 88 82 68 55 50 53 61 63 63 62 72 72 72 67 63 58 59 51 49 76 98 95
56 51 48 45 42 39 34 29 29 29 32 42 54 67 82 83 90 92 89 92 93 92 87 71 63 58 57 62 63 64 64 73 78 81 72 68 63 60 58 49 48 66 83
59 56 52 48 43 41 40 36 31 34 33 33 38 48 57 73 72 76 87 85 88 91 97 80 65 67 67 63 64 62 64 67 75 81 76 72 71 70 62 55 48 50 61
57 54 52 49 46 42 40 41 38 34 35 37 34 37 45 52 66 69 74 84 82 84 87 84 79 79 68 62 62 61 67 68 74 79 78 78 78 78 70 60 53 49 51
63 57 51 43 40 41 43 40 41 42 39 38 44 45 47 44 54 58 65 70 74 78 88 85 88 85 76 69 70 68 67 66 74 78 80 84 84 87 80 67 60 51 52
68 64 59 52 51 51 51 48 45 44 44 41 38 47 50 54 50 52 57 61 65 76 87 88 88 85 79 78 77 73 71 74 76 77 76 82 86 85 84 71 64 59 55
81 75 71 68 63 60 58 63 66 65 59 52 47 44 45 48 52 56 59 59 57 60 66 73 82 92 83 80 79 76 77 75 72 75 74 76 80 86 85 75 65 63 62
87 83 80 81 81 83 82 64 70 74 74 73 59 45 43 43 44 51 55 54 54 52 64 72 78 82 81 78 74 76 76 78 76 82 84 77 79 84 82 73 65 64 65
90 87 84 88 89 94 92 82 72 72 77 77 72 59 45 44 50 49 52 53 48 49 58 61 73 83 87 86 80 81 78 79 85 87 86 81 79 81 82 77 69 69 68
74 78 81 85 90 94 96 98 95 80 72 72 68 63 59 59 61 53 54 53 57 78 85 81 83 86 91 89 94 84 82 83 85 85 85 82 84 83 80 80 76 72 69
30 35 47 64 74 85 94 97 98 98 94 78 73 69 69 70 71 63 63 71 71 77 90 78 81 87 88 88 96 92 82 87 92 89 86 83 90 90 80 76 72 68 70
16 19 20 22 23 30 43 61 79 92 96 94 88 91 92 95 82 82 83 92 85 86 87 96 97 99 97 98 96 98 94 98 98 86 99 85 92 91 89 80 75 71 70
11 10 10 11 15 17 17 20 26 32 39 59 79 88 91 94 96 97 98 98 97 99 99 96 98 98 98 97 99 97 98 99 94 98 92 94 94 94 91 88 86 85 81

GFSMA_prec_cthk_132.txt.gz
RH
80 77 70 66 63 57 52 48 49 48 47 48 47 46 48 47 46 45 45 47 50 51 54 53 61 62 61 67 66 63 61 59 62 63 69 74 78 70 60 53 43 34 28
90 89 86 80 71 69 60 55 50 52 53 52 51 50 48 49 48 47 45 46 47 47 50 58 63 62 62 54 56 56 54 55 59 56 60 64 75 80 70 65 59 43 34
66 88 97 93 90 84 74 67 63 59 58 57 54 54 51 49 48 48 49 46 45 46 47 51 51 59 55 51 52 51 51 55 54 56 58 55 61 75 79 75 71 57 42
42 50 63 69 91 92 97 83 65 70 65 66 58 59 57 53 49 48 49 49 48 44 46 45 45 48 44 44 44 44 44 45 49 50 55 59 58 56 59 71 77 70 46
24 32 40 44 58 75 91 99 90 72 69 74 66 63 62 59 57 50 48 48 48 48 45 46 43 42 42 43 43 43 45 46 48 49 50 53 57 57 59 60 62 77 66
20 17 23 27 33 45 52 71 94 90 79 77 72 71 68 60 62 57 52 49 47 50 48 48 46 41 38 40 44 47 48 50 53 57 58 59 63 63 66 71 70 68 82
23 22 19 21 24 25 37 47 62 88 74 85 88 80 79 68 62 61 56 57 52 49 48 48 51 49 46 44 47 46 48 56 56 58 59 58 63 64 74 83 80 75 74
25 24 25 23 21 22 25 33 42 71 83 87 96 92 87 84 73 63 54 54 54 55 51 48 50 51 51 49 50 52 52 53 64 62 60 60 59 64 83 95 95 94 81
30 28 27 27 27 27 23 28 36 46 70 93 91 94 94 88 76 72 59 55 56 56 53 53 51 52 54 54 53 56 56 53 56 65 66 63 59 62 77 89 97 97 98
33 33 31 30 30 29 29 26 32 38 48 65 87 97 96 98 82 78 67 60 62 57 50 49 53 54 56 57 56 58 61 58 56 61 70 68 63 62 66 76 79 96 98
32 32 32 32 31 30 30 28 31 36 42 51 83 97 93 92 99 93 83 75 72 67 62 61 53 53 56 58 57 61 64 64 60 59 67 66 67 61 62 55 62 88 99
39 37 37 36 33 31 30 30 31 36 44 44 72 88 90 90 85 98 91 85 80 72 69 69 67 60 56 55 58 62 66 67 67 66 68 72 67 62 58 61 55 75 97
46 45 44 43 41 37 32 29 30 39 36 39 45 62 82 86 92 95 93 89 86 83 78 77 74 71 61 60 58 62 66 71 70 67 79 78 72 66 59 58 56 57 95
54 53 51 48 44 42 38 32 30 33 40 42 40 53 67 84 88 96 93 95 95 97 94 84 86 80 73 64 62 63 65 64 72 71 75 78 73 68 65 58 60 54 65
61 59 59 56 52 46 42 40 33 32 43 40 47 45 52 61 86 98 94 88 96 98 92 91 83 79 80 74 69 63 62 65 72 72 74 80 77 74 69 62 61 61 51
72 68 66 60 59 53 47 45 42 40 37 47 48 55 58 58 62 70 82 92 94 89 90 81 77 79 81 81 75 69 60 63 66 74 73 80 79 76 73 68 68 66 59
84 79 72 67 65 61 54 47 46 48 45 40 43 48 50 48 48 52 61 70 82 80 77 70 69 72 83 88 89 78 67 63 66 69 71 75 75 78 79 76 76 76 67
91 82 73 68 64 59 55 53 52 48 47 47 45 41 46 50 44 51 52 56 56 59 69 61 60 69 78 80 78 73 69 65 64 63 72 76 76 80 82 81 81 86 82
82 80 73 70 65 60 58 55 54 51 48 46 45 46 45 44 49 51 49 54 53 56 58 62 59 70 76 80 82 74 69 69 68 69 69 70 73 85 90 88 90 91 91
97 95 84 79 80 78 74 72 69 66 64 61 56 50 47 47 47 52 53 62 65 64 66 66 64 68 69 75 77 74 77 77 78 80 77 74 73 74 79 80 87 86 89
94 94 95 94 95 92 89 87 86 77 76 71 70 73 69 59 54 54 61 63 67 68 64 65 69 69 68 67 65 76 84 87 87 84 83 78 78 75 74 79 78 84 87
73 78 83 86 89 91 96 99 96 88 80 80 76 82 84 89 81 66 66 68 66 79 81 74 69 70 66 67 69 84 89 90 95 90 83 82 81 77 78 82 80 83 90
30 37 47 59 68 80 84 87 91 95 94 88 80 81 84 86 83 75 62 53 51 55 57 63 66 69 68 77 76 82 82 89 89 92 91 88 85 84 85 88 85 83 84
15 18 20 21 24 28 42 63 76 83 92 94 96 93 84 82 80 77 73 67 65 59 57 60 59 61 67 69 89 80 75 88 82 88 90 95 92 88 88 84 84 89 88
10 9 8 8 9 13 16 19 23 34 53 70 84 92 94 87 83 79 77 75 74 70 65 66 67 71 81 85 81 92 98 93 93 90 92 98 95 91 93 86 83 89 92
10 10 10 9 8 8 8 8 9 12 16 21 28 35 52 70 77 86 91 96 86 87 82 87 83 78 79 90 89 91 94 95 96 98 98 98 99 99 97 95 89 95 92

GFSMA_prec_cthk_135.txt.gz
RH
61 77 77 76 71 71 71 70 64 60 53 49 49 48 49 47 47 44 42 45 48 48 49 48 49 48 60 68 73 78 78 69 66 68 69 71 75 75 70 63 57 43 35
49 58 66 93 82 81 79 80 86 78 68 58 54 52 51 51 49 49 45 44 48 50 51 56 54 57 67 65 67 67 66 62 58 56 59 57 61 67 71 77 68 66 47
27 35 47 53 79 92 93 84 86 90 80 73 64 56 54 53 51 52 48 47 48 49 48 50 55 56 66 68 63 58 57 53 52 52 55 57 55 56 68 81 78 72 66
21 21 25 34 45 55 74 70 86 92 98 86 72 66 61 59 59 52 53 47 48 49 49 51 51 56 56 64 58 54 55 49 48 46 47 50 55 55 55 58 67 76 72
24 23 20 20 25 32 43 44 53 64 86 99 84 76 71 66 65 63 55 50 48 49 50 54 53 51 55 54 49 47 46 46 47 47 47 49 49 54 55 54 56 57 60
24 24 22 21 19 19 25 33 40 42 46 76 91 86 79 70 65 65 62 55 51 49 48 52 52 52 54 52 44 44 47 49 49 52 55 60 62 60 62 60 61 65 66
24 24 24 24 23 21 21 22 27 31 36 53 84 88 80 77 68 65 63 62 54 50 49 45 47 52 51 49 46 43 47 47 50 52 55 59 61 60 61 63 64 84 83
26 25 25 24 23 23 23 23 23 28 28 32 44 72 82 77 68 70 66 62 57 53 49 47 45 49 48 48 48 48 50 52 52 56 62 65 67 64 59 61 70 89 93
29 28 27 26 25 23 23 25 27 25 31 30 35 47 63 63 71 75 73 70 64 58 52 53 51 50 51 49 52 52 51 56 55 55 58 60 69 73 64 60 69 80 87
37 36 33 31 30 29 26 25 27 28 33 32 36 31 41 52 66 81 82 78 71 67 54 52 52 51 55 53 51 53 55 54 57 64 59 58 65 74 73 64 64 62 65
37 37 36 35 35 33 29 26 25 26 28 38 42 39 36 38 56 80 86 87 80 78 68 55 55 55 56 56 54 53 54 57 63 68 70 61 60 68 74 69 63 62 57
40 42 42 40 37 35 33 28 24 24 26 29 39 43 44 43 43 62 81 94 95 92 82 67 63 63 62 60 58 58 54 55 61 67 65 68 63 65 72 75 66 62 61
57 55 50 47 43 40 40 37 32 26 26 27 33 40 48 49 50 67 93 92 95 93 90 85 78 77 73 71 68 62 60 58 62 67 65 68 70 70 77 77 73 63 62
80 77 68 60 53 48 43 42 40 35 31 29 31 42 47 56 55 62 78 89 96 94 95 94 85 81 77 74 69 65 62 59 64 68 70 72 82 74 81 80 72 67 62
89 81 74 67 58 52 49 48 47 42 37 33 35 41 48 61 60 51 55 76 91 98 96 96 93 89 87 83 75 71 68 64 63 63 66 69 80 77 79 82 78 70 68
96 92 82 71 65 61 57 56 53 46 42 38 36 41 53 48 73 66 56 65 75 88 98 98 94 93 91 85 74 76 76 72 68 65 63 64 75 76 76 85 83 78 72
97 97 91 83 80 74 70 67 60 53 50 48 47 42 47 46 55 75 56 77 75 82 92 97 97 89 86 76 72 71 77 80 80 71 65 59 69 73 76 79 78 76 77
91 95 91 81 77 74 70 68 65 61 56 54 52 51 49 46 56 81 81 73 85 93 91 89 95 84 77 71 66 75 79 82 87 75 77 66 67 70 70 75 74 76 79
97 92 86 79 76 73 68 65 64 61 63 61 60 58 55 50 50 57 61 75 71 72 76 82 82 76 75 64 64 70 83 84 91 85 84 74 71 69 66 74 77 77 81
97 97 97 93 90 84 82 80 76 71 67 64 61 60 61 62 59 55 53 57 63 73 72 71 74 75 73 67 65 69 72 77 80 88 84 70 74 69 68 72 80 83 89
76 84 90 96 97 98 98 97 96 93 91 86 78 74 71 69 66 63 62 61 59 70 75 71 74 76 83 80 74 67 69 69 76 84 81 71 74 73 78 74 78 82 85
35 54 59 63 71 81 89 94 97 98 98 94 91 87 77 81 77 80 72 66 67 69 70 79 84 78 78 73 68 74 83 75 73 76 78 82 78 77 84 85 80 80 82
11 13 16 20 27 39 51 65 81 83 84 92 93 90 90 93 90 89 94 88 80 70 68 76 81 75 77 80 72 80 80 80 77 72 75 88 93 92 90 95 93 87 85
10 10 9 8 8 9 14 18 24 30 49 66 79 81 85 87 83 78 81 82 84 77 69 67 70 72 77 82 78 77 75 74 68 80 80 90 96 94 97 98 98 95 95
11 10 10 10 9 9 8 8 8 9 12 17 21 31 50 60 69 75 75 80 84 85 84 80 74 70 68 71 71 71 65 68 71 90 91 85 95 98 92 99 96 95 95
12 11 11 10 10 10 9 9 8 8 8 8 9 10 12 20 24 31 42 58 69 71 76 81 83 80 80 75 68 65 73 66 82 78 80 92 98 85 89 92 89 98 99

GFSMA_prec_cthk_138.txt.gz
RH
32 41 49 65 82 81 81 83 83 78 77 78 73 59 56 56 56 56 55 52 48 48 54 49 48 45 49 54 62 71 72 73 68 63 63 68 72 71 70 66 59 51 43
21 24 33 40 46 67 85 85 91 91 89 86 79 78 62 62 61 57 55 54 49 49 49 54 50 54 52 51 59 69 74 73 70 63 61 58 58 58 68 72 71 68 65
27 24 22 24 36 41 53 79 98 96 95 93 93 83 74 66 66 64 59 57 52 49 51 52 53 54 65 56 61 68 69 71 66 60 55 54 56 52 54 58 65 72 75
27 27 26 24 23 23 32 40 52 61 86 91 81 95 81 81 73 72 65 61 58 53 49 51 52 51 55 70 71 70 67 59 60 54 53 52 55 55 57 56 57 68 76
26 26 25 25 25 23 22 26 31 30 42 52 66 84 79 90 81 73 75 71 61 56 55 53 51 52 51 58 66 65 65 55 54 50 46 47 48 51 54 58 58 56 56
24 25 25 25 25 25 24 22 21 25 25 28 34 41 58 71 87 75 77 74 69 58 58 58 54 54 54 49 55 60 60 49 47 47 48 49 51 56 60 61 62 61 61
22 22 23 23 24 24 25 27 28 26 23 24 27 28 31 50 67 71 77 81 75 67 61 59 57 58 59 54 51 56 55 49 50 55 52 51 54 59 61 62 65 65 65
26 26 25 24 24 25 25 26 29 31 32 34 32 33 37 39 47 64 71 76 78 68 63 63 60 55 57 54 51 50 49 51 52 57 61 56 57 62 65 67 65 64 67
29 29 30 31 30 30 28 30 33 34 33 36 39 38 39 36 31 35 54 69 78 71 65 66 61 52 54 54 49 47 46 50 52 55 59 63 63 64 69 73 72 66 66
31 32 33 33 33 36 37 36 35 35 35 33 39 38 38 38 42 41 47 57 71 68 69 69 72 54 52 56 53 52 45 46 51 53 58 62 66 64 60 71 80 72 66
41 41 40 38 39 39 38 38 40 40 38 36 35 39 40 41 39 47 49 62 62 60 67 72 76 72 56 57 62 55 49 48 51 53 56 60 65 69 66 65 75 79 72
45 44 43 43 44 43 41 41 43 41 40 39 38 37 40 40 49 50 49 49 59 58 59 69 74 78 75 71 63 60 52 51 56 58 62 62 68 72 67 64 66 74 78
57 58 56 52 48 47 47 45 45 44 41 39 38 35 34 38 47 57 59 54 51 54 62 66 75 80 82 85 81 66 57 56 58 61 70 75 76 75 68 69 70 75 79
70 73 74 75 76 73 69 61 54 49 45 41 40 37 35 34 40 50 64 62 62 58 62 71 74 86 90 94 89 83 69 64 63 61 65 71 74 78 74 73 72 71 79
86 91 95 95 92 89 83 79 68 61 55 49 44 42 38 37 37 44 67 74 75 68 66 61 72 86 93 94 98 86 78 74 71 69 68 68 66 70 76 75 84 81 82
93 93 95 96 93 86 77 77 69 61 58 56 53 49 45 41 39 45 52 67 78 73 82 60 76 88 89 90 97 89 83 82 75 73 74 72 68 62 69 72 80 83 85
88 92 97 98 94 91 84 76 71 68 63 61 56 52 51 47 45 51 57 65 80 72 77 82 79 90 92 92 90 93 90 84 78 75 78 76 73 70 65 70 75 79 80
95 93 91 83 86 89 88 84 82 79 76 68 63 58 54 51 45 47 49 65 89 98 83 83 82 78 91 97 90 94 87 80 83 82 80 85 79 79 72 69 70 76 78
97 97 94 91 84 79 75 75 76 76 74 68 67 65 61 55 53 50 56 56 60 86 94 87 94 97 91 91 95 92 87 81 80 80 77 82 83 84 80 75 71 74 75
91 94 97 96 96 94 86 79 76 74 75 77 71 69 68 67 64 56 56 54 60 72 85 89 98 99 95 99 98 96 93 84 81 79 83 88 89 91 88 82 72 73 74
44 58 74 84 92 97 97 97 97 95 89 87 86 82 82 82 72 73 67 63 59 66 80 90 95 94 85 86 87 90 91 85 80 89 88 92 90 97 87 88 78 77 78
11 13 16 23 33 51 70 79 85 91 97 97 96 92 91 88 87 87 80 74 68 61 64 61 75 77 84 89 88 95 92 88 86 78 88 92 96 94 95 89 83 78 84
10 10 9 9 8 9 13 16 29 51 58 70 80 90 90 91 88 87 90 81 80 77 70 76 88 74 81 93 92 90 89 93 93 79 79 83 85 83 84 86 91 90 75
11 10 10 10 9 9 8 8 8 8 12 20 26 35 47 55 65 73 78 73 77 87 90 83 75 69 79 91 83 91 85 84 83 80 78 82 94 79 76 80 88 92 85
12 11 10 10 10 9 9 9 8 8 8 8 8 8 11 14 19 25 36 55 64 67 78 81 84 81 72 63 63 67 78 79 82 81 80 81 86 80 90 75 82 85 90
15 14 13 12 10 10 9 9 8 8 8 8 8 8 8 8 8 8 11 15 19 27 37 45 58 67 71 74 72 66 68 73 85 82 80 81 79 79 81 76 92 88 93

GFSMA_prec_cthk_141.txt.gz
RH
23 22 25 32 38 50 78 88 85 88 89 88 82 80 82 77 61 65 80 64 58 52 46 46 52 48 50 54 60 63 67 69 70 67 60 60 63 67 68 65 62 56 51
26 26 25 26 29 38 38 47 57 91 87 94 89 90 89 92 87 69 75 72 59 61 49 48 50 49 47 48 54 57 63 68 70 70 67 63 62 66 66 69 71 68 61
24 25 26 27 31 34 28 29 34 46 63 93 93 93 95 89 96 87 79 83 72 60 56 52 51 51 52 50 55 55 58 69 70 74 69 63 61 57 56 52 59 66 62
25 25 25 26 29 30 31 34 29 28 28 42 58 76 83 84 86 98 94 82 80 76 64 64 54 51 52 52 64 65 60 66 71 73 70 62 56 54 56 52 53 56 58
26 26 26 26 26 26 29 31 34 35 31 22 21 28 37 46 61 86 90 88 84 82 74 67 63 54 52 53 53 66 70 77 72 71 65 61 56 51 52 51 54 56 56
23 22 22 22 23 25 27 30 31 32 35 34 32 28 21 19 23 48 71 73 76 83 78 76 71 67 57 55 50 51 65 76 70 67 59 56 53 50 49 51 53 55 57
27 28 28 26 26 26 27 28 30 30 31 33 39 40 31 27 20 20 30 51 64 73 76 71 73 68 66 66 57 50 50 65 66 64 52 48 50 51 53 57 62 64 63
29 28 28 29 30 30 29 29 30 31 31 30 35 40 40 35 29 20 25 38 48 66 68 70 75 68 70 65 64 55 52 50 61 60 49 46 49 53 56 57 60 62 63
31 31 31 29 28 30 31 33 33 33 33 31 33 41 46 45 40 37 29 29 46 55 58 66 71 68 64 69 70 62 57 51 56 56 49 49 54 58 58 60 62 68 71
35 34 34 33 32 32 30 31 33 39 39 36 35 37 44 46 54 54 48 33 30 39 52 57 62 74 64 64 65 69 55 52 52 52 49 50 53 58 61 63 64 67 71
44 43 42 41 40 39 38 37 36 34 36 40 42 43 43 44 47 52 49 54 70 53 48 52 62 66 70 63 64 68 56 52 53 47 50 49 53 56 60 66 67 67 65
54 54 52 51 49 47 43 42 41 42 39 38 39 45 49 48 45 51 48 45 43 59 56 61 64 71 71 69 65 68 61 52 54 56 51 51 52 53 58 62 67 72 74
63 62 61 59 57 56 55 53 46 42 44 44 42 41 44 48 51 50 52 49 53 52 55 58 69 70 76 80 78 73 73 63 56 62 63 61 58 55 56 62 68 73 69
73 74 75 76 75 74 72 70 69 67 57 47 46 44 42 43 45 47 50 51 50 53 66 57 57 59 69 67 72 72 77 76 67 71 71 68 65 62 59 63 71 74 71
87 89 89 89 92 96 94 91 85 82 81 76 68 58 49 45 44 43 43 47 53 53 49 69 65 61 60 64 76 80 78 79 81 78 87 80 74 74 70 70 75 76 76
93 93 95 94 94 96 97 93 89 87 87 85 81 76 64 56 51 47 45 43 49 54 53 57 85 69 73 75 70 72 80 93 93 84 91 94 85 80 72 68 71 72 73
98 94 94 94 97 97 96 96 87 82 82 82 81 73 67 63 58 54 50 48 46 57 54 58 97 80 80 81 78 73 79 95 93 95 96 96 90 83 75 73 69 67 71
97 97 96 90 84 86 87 94 93 89 86 83 79 74 69 65 61 58 55 56 53 56 56 56 95 87 81 80 92 77 85 89 95 93 94 95 90 87 82 80 76 71 71
97 97 97 96 97 95 88 82 83 88 89 88 84 77 70 65 60 56 54 55 55 57 57 59 67 82 90 87 90 91 89 90 89 95 96 93 89 93 90 84 85 79 79
50 70 88 96 96 97 97 97 94 88 86 83 79 77 75 71 69 65 60 55 55 55 64 72 74 90 92 98 89 91 89 92 93 95 98 94 97 98 95 90 91 93 86
23 27 24 29 45 66 84 93 96 98 98 94 91 90 83 80 75 77 71 62 62 61 58 63 65 79 94 96 98 99 99 98 98 98 96 96 94 91 88 95 94 90 86
13 15 14 11 11 13 16 29 47 62 76 92 96 97 94 92 90 90 92 80 76 70 65 67 65 68 81 91 96 99 98 99 97 98 98 99 98 95 97 98 95 91 88
12 11 12 12 11 12 15 10 9 12 19 25 39 46 60 70 80 89 92 96 92 87 80 74 73 69 68 79 83 92 93 90 90 94 96 99 98 97 97 98 99 96 90
13 12 11 10 10 10 10 12 10 9 8 8 9 13 18 18 24 38 48 66 73 77 83 86 86 84 78 75 82 86 85 83 92 92 94 93 97 97 93 95 97 97 97
18 15 13 12 11 10 9 10 15 12 10 7 7 6 6 7 9 9 12 17 22 24 33 40 53 60 64 69 73 73 72 71 68 75 85 93 94 90 93 84 83 90 88
25 26 22 13 12 11 10 10 10 15 12 14 8 7 7 6 6 5 5 6 7 9 12 16 17 17 22 32 39 49 56 64 67 69 68 73 82 83 79 82 79 76 77

GFSMA_prec_cthk_147.txt.gz
RH
17 17 18 19 19 21 22 22 22 26 35 46 66 75 92 96 78 85 91 92 88 80 77 83 81 85 72 59 57 55 58 67 69 68 63 59 59 57 54 55 58 60 56
19 19 19 19 20 21 21 24 27 27 25 24 29 37 43 51 70 71 72 92 96 94 87 80 81 87 85 69 64 55 57 61 62 66 65 60 58 61 58 56 59 61 60
17 17 18 20 21 21 22 22 23 28 32 29 25 28 27 31 41 60 74 88 82 90 89 77 78 76 83 80 75 61 56 60 59 63 63 63 59 63 63 62 61 62 67
18 17 16 16 17 17 20 22 23 23 24 30 32 29 30 27 33 32 51 59 58 78 85 67 64 74 86 87 82 70 58 58 55 57 60 62 65 62 65 65 62 61 55
19 19 19 20 18 18 18 19 20 23 23 24 28 32 32 32 28 25 33 43 56 64 70 60 59 59 77 86 85 76 66 60 56 57 61 61 65 66 66 67 62 59 53
20 21 22 23 24 24 22 21 21 22 26 27 25 25 30 32 28 28 24 22 31 47 49 52 52 50 64 82 85 72 69 65 60 59 63 68 67 68 71 70 64 57 55
21 22 22 23 24 26 28 27 25 25 24 27 28 25 22 27 35 28 26 23 21 20 24 34 38 44 53 77 78 73 79 67 62 61 58 64 71 75 75 73 66 55 54
26 26 26 26 27 28 29 30 32 29 27 31 33 32 28 23 22 23 24 22 21 20 19 19 26 34 43 60 74 77 83 81 71 66 63 56 57 74 78 74 68 56 49
33 35 36 36 36 35 33 33 34 35 34 32 36 41 41 38 32 27 25 26 24 22 21 23 21 23 33 51 62 76 87 88 88 75 72 60 55 58 66 72 69 58 48
41 44 46 46 46 45 42 41 40 39 39 38 36 41 44 43 46 39 36 37 37 34 33 35 31 30 29 35 59 67 79 87 84 85 83 74 62 57 57 63 68 60 51
48 51 53 56 56 55 55 56 53 51 48 45 43 40 42 44 45 45 37 35 42 45 45 41 37 36 36 44 59 65 68 73 83 90 76 80 77 67 61 61 65 60 52
57 61 64 66 66 67 66 67 66 63 60 56 50 48 46 45 46 49 45 39 37 39 46 48 56 49 49 52 57 67 69 76 75 86 82 80 78 81 73 62 62 62 55
71 70 72 75 76 75 76 78 76 73 71 67 62 57 54 53 47 46 48 41 38 36 36 39 51 61 65 64 70 72 72 84 84 80 84 82 82 82 82 74 63 60 56
83 84 85 85 87 90 92 93 92 89 83 78 73 66 64 62 60 52 50 49 41 40 40 37 37 45 57 66 80 86 87 87 92 93 92 83 85 84 81 83 75 65 61
95 95 95 97 97 97 97 96 96 96 98 95 90 84 73 67 65 60 53 52 48 43 39 40 41 44 51 57 64 76 79 80 87 91 96 96 92 90 86 85 85 80 75
94 97 97 96 94 91 86 86 91 94 95 92 90 93 95 82 77 72 62 53 47 43 42 42 42 44 44 51 54 61 64 77 78 84 86 95 96 96 93 92 89 89 88
71 86 97 97 97 95 92 87 85 90 95 91 85 83 90 95 90 82 79 77 68 51 45 47 49 51 51 45 49 52 52 60 70 79 80 86 93 96 98 98 96 94 94
35 48 70 93 96 96 97 97 94 89 86 88 90 91 88 90 93 95 90 88 86 74 63 57 60 58 57 58 55 55 57 62 71 81 86 90 91 93 97 93 98 93 97
22 23 29 37 48 68 88 97 97 97 95 91 86 84 82 82 82 86 88 90 90 87 85 78 67 62 60 63 64 64 64 69 82 87 96 98 95 90 91 98 98 92 86
22 16 18 18 20 22 32 44 62 87 93 96 96 94 88 82 78 73 71 68 65 67 70 73 73 68 66 63 65 66 67 71 85 94 97 96 97 97 93 96 89 81 78
11 13 17 14 12 16 14 20 23 28 37 47 69 85 94 94 86 86 85 77 77 73 67 66 70 72 74 69 66 68 64 63 75 86 93 93 93 93 92 92 91 85 89
11 11 11 11 12 19 15 9 11 13 19 19 25 32 38 55 75 84 92 97 94 94 92 78 72 70 70 67 64 63 65 64 64 70 81 91 96 94 91 92 97 97 93
13 13 14 13 12 15 20 10 9 9 8 8 8 10 16 24 31 33 39 50 55 64 75 82 81 78 76 78 73 71 71 68 63 65 75 85 85 92 93 95 94 93 97
15 16 15 16 14 13 12 11 10 9 9 9 8 8 7 8 9 10 11 15 16 17 22 32 39 42 49 55 55 56 64 65 66 55 60 61 68 78 87 91 88 89 92
19 19 17 17 17 16 13 13 12 12 11 11 12 15 10 8 9 8 7 7 8 9 9 9 9 9 14 17 19 20 23 26 25 24 25 31 38 52 68 77 80 82 86
25 24 19 20 20 20 18 15 15 14 14 14 14 14 16 12 10 9 9 9 9 9 9 8 8 8 8 8 9 11 13 14 17 20 22 20 19 18 21 27 37 45 58